Location: Kiltepe
(36.4752°N, 30.0120°E)
Time: 09:48:57
(UTC+00:00)

Cosmos 1656 Rocket - Pass Details

Date: 03 August 2024
Orbit: 793 x 846 km, 71.1° (Epoch: 14 September)

Event Time Altitude Azimuth Distance (km) Brightness Sun altitude
Rises 17:57:06 0° 201° (SSW) 3,301 6.7 -10.5°
Reaches altitude 10° 17:59:29 10° 201° (SSW) 2,382 6.0 -10.9°
Maximum altitude 18:04:57 87° 291° (WNW) 823 3.7 -11.8°
Drops below altitude 10° 18:10:32 10° 21° (NNE) 2,433 6.3 -12.8°
Sets 18:13:00 0° 22° (NNE) 3,378 7.0 -13.2°
